COSMOS 1308

导读

COSMOS 1308是苏联(CIS)于1981年9月18日发射的“宇宙”系列卫星,延续了苏联保密军用卫星的传统,推测承担空间侦察或信号情报任务,服务于冷战时期战略监测需求。作为该系列批量发射的军用航天器,它体现了苏联在冷战高峰期稳定的太空发射能力,推进了太空军事化应用进程,是苏联航天发展历程中的典型军用卫星之一。

Basic Information
目录编号:
12835
目录名称:
COSMOS 1308
国际标识:
1981-091A
轨道中心:
EARTH
卫星名称:
COSMOS 1308
卫星全名:
--
卫星状态:
在轨 (已飞行16433 天)
发射日期:
1981-09-18 UTC
国别 :
俄罗斯(独联体) (CIS)
星等 :
--
This satellite is enrolled in the Space Conjunction Data Service (SCDS) and the current flight risk assessment level is: No High Risk
Orbit Information
数据来源 国际轨道数据 AOE轨道数据
星历时间 2026-09-15T16:24:45+0800
13小时前
查看轨道信息
2026-09-15T23:00:00+0800
7小时前
查看轨道信息
半长轴 7357.466km 7357.465km
偏心率 0.0026968 0.0027734
轨道倾角 82.916° 82.918°
近地点辐角 201.124° 200.710°
升交点赤经 107.554° 107.348°
平近点角 332.999° 252.000°
近地点 959.487km 958.922km
远地点 999.171km 999.734km
周期 104.677分钟 104.677分钟
每日圈数 13.756578 13.75658
Detailed Information
使用方式:
暂无
2D Orbit Map
3D Orbit Map
Orbit Altitude Analysis Chart
Orbit Inclination Analysis Chart
Orbit Comprehensive Analysis Chart
View Comprehensive Chart
Miss Distance Evolution Trend with All Objects Subscribe to Flight Safety Assessment
Collision Probability Evolution Trend with All Objects Subscribe to Flight Safety Assessment